SCP
0 0 0 0 0 0 0 0 0 0 0 0 0 0 0 0 0 0 0 0 0 0 0 0 0 0 0 0 0 0 0 0 0 0 0 0 0 0 0 0 0 0 0 0 0 0 0
0 0 0 0 0 0 0 0 0 0 0 0 0 0 0 0 0 0 0 0 0 0 0 0 0 0 0 0 0 0 0 0 0 0 0 0 0 0 0 0 0 0 0 0 0 0 0
0 0 0 0 0 0 0 0 0 0 0 0 0 0 0 0 0 0 0 0 0 0 0 0 0 0 0 0 0 0 0 0 0 0 0 0 0 0 0 0 0 0 0 0 0 0 0
0 0 0 0 0 0 0 0 0 0 0 0 0 0 0 0 0 0 0 0 0 0 0 0 0 0 0 0 0 0 0 0 0 0 0 0 0 0 0 0 0 0 0 0 0 0 0
0 0 0 0 0 0 0 0 0 0 0 0 0 0 0 0 0 0 0 0 0 0 0 0 0 0 0 0 0 0 0 0 0 0 0 0 0 0 0 0 0 0 0 0 0 0 0
0 0 0 0 0 0 0 0 0 0 0 0 0 0 0 0 0 0 0 0 0 0 0 0 0 0 0 0 0 0 0 0 0 0 0 0 0 0 0 0 0 0 0 0 0 0 0
0 0 0 0 0 0 0 0 0 0 0 0 0 0 0 0 0 0 0 0 0 0 0 0 0 0 0 0 0 0 0 0 0 0 0 0 0 0 0 0 0 0 0 0 0 0 0
0 0 0 0 0 0 0 0 0 0 0 0 0 0 0 0 0 0 0 0 0 0 0 0 0 0 0 0 0 0 0 0 0 0 0 0 0 0 0 0 0 0 0 0 0 0 0
0 0 0 0 0 0 0 0 0 0 0 0 0 0 0 0 0 0 0 0 0 0 0 0 0 0 0 0 0 0 0 0 0 0 0 0 0 0 0 0 0 0 0 0 0 0 0
0 0 0 0 0 0 0 0 0 0 0 0 0 0 0 0 0 0 0 0 0 0 0 0 0 0 0 0 0 0 0 0 0 0 0 0 0 0 0 0 0 0 0 0 0 0 0
0 0 0 0 0 0 0 0 0 0 0 0 0 0 0 0 0 0 0 0 0 0 0 0 0 0 0 0 0 0 0 0 0 0 0 0 0 0 0 0 0 0 0 0 0 0 0
0 0 0 0 0 0 0 0 0 0 0 0 0 0 0 0 0 0 0 0 0 0 0 0 0 0 0 0 0 0 0 0 0 0 0 0 0 0 0 0 0 0 0 0 0 0 0
0 0 0 0 0 0 0 0 0 0 0 0 0 0 0 0 0 0 0 0 0 0 0 0 0 0 0 0 0 0 0 0 0 0 0 0 0 0 0 0 0 0 0 0 0 0 0
0 0 0 0 0 0 0 0 0 0 0 0 0 0 0 0 0 0 0 0 0 0 0 0 0 0 0 0 0 0 0 0 0 0 0 0 0 0 0 0 0 0 0 0 0 0 0
0 0 0 0 0 0 0 0 0 0 0 0 0 0 0 0 0 0 0 0 0 0 0 0 0 0 0 0 0 0 0 0 0 0 0 0 0 0 0 0 0 0 0 0 0 0 0
0 0 0 0 0 0 0 0 0 0 0 0 0 0 0 0 0 0 0 0 0 0 0 0 0 0 0 0 0 0 0 0 0 0 0 0 0 0 0 0 0 0 0 0 0 0 0
0 0 0 0 0 0 0 0 0 0 0 0 0 0 0 0 0 0 0 0 0 0 0 0 0 0 0 0 0 0 0 0 0 0 0 0 0 0 0 0 0 0 0 0 0 0 0
0 0 0 0 0 0 0 0 0 0 0 0 0 0 0 0 0 0 0 0 0 0 0 0 0 0 0 0 0 0 0 0 0 0 0 0 0 0 0 0 0 0 0 0 0 0 0
0 0 0 0 0 0 0 0 0 0 0 0 0 0 0 0 0 0 0 0 0 0 0 0 0 0 0 0 0 0 0 0 0 0 0 0 0 0 0 0 0 0 0 0 0 0 0
0 0 0 0 0 0 0 0 0 0 0 0 0 0 0 0 0 0 0 0 0 0 0 0 0 0 0 0 0 0 0 0 0 0 0 0 0 0 0 0 0 0 0 0 0 0 0
0 0 0 0 0 0 0 0 0 0 0 0 0 0 0 0 0 0 0 0 0 0 0 0 0 0 0 0 0 0 0 0 0 0 0 0 0 0 0 0 0 0 0 0 0 0 0
0 0 0 0 0 0 0 0 0 0 0 0 0 0 0 0 0 0 0 0 0 0 0 0 0 0 0 0 0 0 0 0 0 0 0 0 0 0 0 0 0 0 0 0 0 0 0
0 0 0 0 0 0 0 0 0 0 0 0 0 0 0 0 0 0 0 0 0 0 0 0 0 0 0 0 0 0 0 0 0 0 0 0 0 0 0 0 0 0 0 0 0 0 0
0 -0 0 0 0 0 0 0 0 0 0 0 0 0 0 0 0 0 0 0 0 0 0 0 0 0 0 0 0 0 0 0 0 0 0 0 0 0 0 0 0 0 0 0 0 0 0
0 0 -0 0 0 0 0 0 0 0 0 0 0 0 0 0 0 0 0 0 0 0 0 0 0 0 0 0 0 0 0 0 0 0 0 0 0 0 0 0 0 0 0 0 0 0 0
0 0 -0 0 0 0 0 0 0 0 0 0 0 0 0 0 0 0 0 0 0 0 0 0 0 0 0 0 0 0 0 0 0 0 0 0 0 0 0 0 0 0 0 0 0 0 0
0 0 0 0 0 0 0 0 0 0 0 0 0 0 0 0 0 0 0 0 0 0 0 0 0 0 0 0 0 0 0 0 0 0 0 0 0 0 0 0 0 0 0 0 0 0 0
0 0 0 0 0 0 0 0 0 0 0 0 0 0 0 0 0 0 0 0 0 0 0 0 0 0 0 0 0 0 0 0 0 0 0 0 0 0 0 0 0 0 0 0 0 0 0
0 0 0 0 -0 0 0 0 0 0 0 0 0 0 0 0 0 0 0 0 0 0 0 0 0 0 0 0 0 0 0 0 0 0 0 0 0 0 0 0 0 0 0 0 0 0 0
Wind_Speed_500mb
26 32 23 22 23 24 21 17 16 15 11 11 9 5 5 2 2 6 9 9 4 2 5 2 10 14 10 7 7 8 9 6 8 8 11 12 11 10 9 8 7 8 6 9 9 7 3
24 29 28 28 26 26 25 21 19 17 16 14 13 9 6 5 3 4 5 5 6 8 2 4 10 9 6 4 7 8 11 12 8 7 10 8 8 18 17 7 7 7 10 12 6 4 5
30 30 29 30 31 29 30 28 23 21 19 17 16 12 9 8 5 3 2 1 3 5 9 6 8 8 5 9 10 7 12 15 14 12 14 19 17 3 12 10 13 20 6 6 8 5 4
35 34 33 31 30 33 33 31 29 25 22 20 19 16 11 9 7 6 5 3 5 6 8 8 7 7 5 14 11 8 8 13 18 19 15 15 17 20 7 22 8 4 6 5 5 4 6
40 38 37 35 32 31 34 34 32 30 26 24 21 18 13 12 9 7 7 7 7 8 9 8 8 6 7 12 8 8 8 11 13 12 12 12 10 11 8 7 7 9 3 5 7 6 5
51 43 41 41 35 34 35 34 35 33 29 27 25 21 16 13 10 8 5 10 9 8 8 10 10 4 12 9 10 8 6 7 6 5 3 4 7 7 8 7 6 7 2 5 8 2 7
58 51 48 45 42 39 37 36 36 36 34 31 29 24 18 16 12 9 11 15 8 4 11 5 5 3 12 13 11 9 8 9 6 3 3 7 10 4 6 2 4 5 2 6 6 1 8
50 50 54 56 47 45 41 38 36 36 38 35 32 26 22 18 15 12 20 10 9 4 9 5 4 7 15 10 3 8 10 8 4 4 6 10 4 5 2 1 4 5 2 6 11 4 5
52 50 52 66 58 50 46 41 39 37 38 39 36 30 25 19 17 17 21 20 11 12 4 6 7 6 7 6 3 5 8 12 9 8 8 7 2 5 1 6 5 4 3 1 7 15 7
57 61 68 68 65 58 53 48 43 39 38 42 39 33 27 21 15 20 22 24 18 14 8 7 8 8 10 9 4 8 11 5 8 9 7 8 4 1 2 4 3 3 5 1 6 10 5
62 54 58 59 60 68 63 55 49 44 39 41 41 36 31 28 12 22 15 23 21 9 3 6 9 10 11 8 15 7 8 6 9 9 8 4 0 3 4 2 5 4 0 1 1 2 5
33 59 60 59 62 60 71 67 56 50 44 41 43 38 36 32 26 17 17 27 22 11 12 5 10 11 8 5 6 9 5 10 13 9 11 4 2 4 2 1 2 4 2 5 6 3 6
30 17 53 62 63 64 65 72 68 60 52 47 45 41 40 35 27 24 30 30 9 9 7 10 11 12 7 8 6 7 7 8 9 9 2 9 3 3 4 2 1 3 6 7 11 8 8
37 44 28 35 45 61 70 64 76 68 61 53 47 44 44 39 28 34 40 8 8 8 13 5 8 9 13 12 3 9 9 5 6 9 7 9 10 2 7 2 3 3 6 8 9 3 10
49 45 49 45 35 28 65 76 66 82 71 61 53 49 48 44 37 41 32 5 18 16 15 19 8 9 7 6 9 9 14 11 15 15 14 9 6 3 5 4 2 2 2 3 11 2 5
47 48 49 50 45 37 35 58 71 66 80 74 66 54 55 47 42 46 5 16 10 9 13 6 15 10 15 15 13 13 16 6 13 10 5 10 5 3 2 2 2 0 4 5 6 2 8
46 49 51 50 49 48 44 33 64 66 67 83 71 33 30 45 45 28 12 14 12 14 15 13 12 11 10 16 15 13 18 1 8 10 9 9 6 6 4 8 10 2 2 4 4 6 7
51 45 47 48 49 40 44 46 33 57 70 93 57 8 42 62 21 10 8 14 16 13 16 6 8 7 15 13 12 12 18 4 24 27 16 12 10 6 11 3 1 3 3 8 7 8 2
50 52 46 52 44 49 50 49 46 16 86 94 48 16 58 77 18 9 6 8 14 10 11 14 14 6 6 15 10 8 9 3 20 13 15 16 1 4 11 6 6 7 8 7 8 5 10
57 52 54 48 61 51 47 54 46 42 99 90 36 8 13 36 13 15 12 10 13 19 10 12 10 10 8 6 8 12 7 5 10 7 4 13 7 12 12 8 9 5 8 10 9 7 7
54 57 57 55 51 60 57 48 61 47 58 76 23 13 23 16 20 10 14 22 18 14 10 20 3 9 15 8 6 8 6 5 5 7 4 5 10 5 6 3 6 10 10 15 17 13 13
63 55 57 60 58 52 58 51 51 67 65 64 25 17 18 9 41 25 17 19 37 13 18 12 11 21 11 15 17 20 18 10 13 9 10 4 6 6 6 5 3 10 15 19 24 5 22
58 59 59 57 60 58 52 52 49 41 62 30 21 32 37 24 22 32 35 20 27 22 25 16 22 14 12 9 8 10 10 33 30 21 16 14 12 6 7 3 5 15 18 31 10 12 17
62 64 61 55 62 63 55 47 46 64 54 32 19 30 17 9 25 35 39 47 30 40 19 14 32 17 20 43 54 46 47 43 35 19 16 15 11 4 5 2 6 15 8 11 25 15 32
57 64 69 58 63 64 64 52 45 57 52 40 24 23 21 6 26 24 30 41 49 28 7 16 18 20 61 31 8 10 5 5 7 9 8 3 10 6 6 7 11 22 6 13 15 17 33
60 63 63 75 54 63 62 50 44 45 55 48 39 47 13 10 21 33 32 30 22 20 5 4 19 57 56 6 8 17 15 11 13 4 9 5 4 6 6 7 14 16 7 12 5 13 6
60 67 63 62 59 59 64 56 47 44 51 55 45 53 27 8 8 49 14 30 28 24 9 13 20 22 15 6 7 12 14 8 15 23 12 8 3 16 15 9 12 15 18 20 8 11 8
66 60 56 57 72 51 63 63 48 40 37 45 58 36 49 13 10 39 30 40 35 51 13 24 13 7 5 8 17 10 8 13 8 11 16 17 20 9 5 9 19 31 14 18 13 11 13
60 57 58 57 57 48 59 61 52 42 30 34 43 35 51 25 13 34 51 37 60 74 53 53 16 22 24 7 6 7 6 6 12 9 4 10 15 16 24 17 10 56 27 54 20 16 16
Wind_Direction_500mb
250 254 249 259 245 238 240 238 241 246 237 243 248 245 266 286 327 312 309 302 272 170 66 148 109 137 149 114 97 53 50 86 118 132 160 137 135 117 120 102 75 86 149 118 158 177 154
255 253 261 262 254 238 239 238 237 239 246 241 244 236 251 265 290 314 323 277 211 201 48 91 148 160 161 134 99 68 74 77 124 144 170 166 131 120 104 71 75 118 133 143 201 261 250
258 254 259 262 259 243 235 234 233 231 235 244 247 247 237 255 266 285 19 102 219 232 220 140 144 171 184 148 133 101 81 94 106 100 122 119 127 183 122 102 112 131 86 345 240 240 263
256 259 257 259 262 251 243 232 232 232 231 237 240 246 242 246 256 242 204 151 181 188 205 193 193 182 154 148 140 134 114 95 96 106 114 110 112 98 59 120 81 89 60 26 256 265 216
256 258 259 257 258 253 246 240 232 233 231 232 238 240 242 249 250 245 249 223 184 177 187 178 187 210 140 154 155 151 146 114 109 110 108 119 107 91 90 76 40 9 230 215 290 253 281
248 252 258 259 254 255 249 241 239 235 234 237 235 235 235 235 245 252 226 195 169 183 149 182 188 218 168 178 156 157 159 134 115 157 96 105 77 72 38 68 223 199 264 285 255 282 280
244 243 250 254 254 252 252 247 242 239 235 235 236 235 229 230 226 223 198 153 171 175 200 219 174 173 150 153 143 148 156 120 88 32 92 33 70 130 184 201 149 142 220 264 262 52 335
249 251 257 251 248 247 247 248 244 241 237 234 237 234 234 225 224 212 206 184 223 184 122 131 140 157 159 172 149 117 137 99 67 76 342 25 108 211 236 328 114 78 255 273 281 253 352
260 254 264 248 244 246 243 245 244 243 236 231 232 230 229 225 220 213 219 212 211 174 108 185 172 159 166 200 151 118 140 111 91 58 12 120 84 317 353 41 85 44 220 233 254 322 254
255 264 268 251 242 240 243 239 242 242 241 228 230 228 224 222 224 213 213 210 200 182 69 203 198 190 176 174 42 101 112 124 66 143 98 85 290 60 27 55 18 283 159 297 313 11 280
247 251 254 260 255 242 239 238 236 238 238 232 228 224 222 211 199 196 201 194 186 183 51 158 157 169 168 182 140 54 115 86 119 117 114 200 2 57 95 63 350 283 321 246 1 320 343
231 239 258 260 253 256 241 234 229 230 232 231 227 223 219 214 212 196 193 165 153 49 248 199 142 170 146 168 119 127 125 98 113 90 39 103 35 35 105 272 105 321 312 41 56 43 26
285 266 238 249 254 251 250 238 228 224 224 226 223 222 219 213 210 194 167 150 55 156 337 213 190 162 180 157 125 151 160 130 142 86 292 350 340 5 32 22 32 79 46 338 353 10 215
273 277 276 248 241 250 254 240 232 225 221 219 220 217 216 211 201 187 166 66 126 237 207 154 133 119 178 157 149 157 134 157 212 107 99 139 317 17 2 27 173 72 130 150 232 288 276
276 272 274 279 272 238 242 243 243 229 214 213 210 211 216 206 197 187 171 134 202 201 163 150 85 114 207 215 143 160 189 193 189 174 155 127 284 322 47 351 19 244 40 157 102 35 25
267 270 265 271 268 266 252 237 236 243 220 206 200 202 214 201 193 185 143 227 212 188 132 164 161 164 172 186 160 180 180 189 174 175 154 192 72 280 324 357 353 308 141 50 8 350 302
277 266 264 266 269 262 257 257 233 227 221 201 192 185 206 197 185 182 203 226 216 213 160 153 187 149 183 174 174 179 188 326 164 138 114 137 106 282 30 196 180 48 43 75 120 133 185
274 279 261 262 266 264 257 256 259 222 218 195 172 167 171 175 171 202 173 192 183 177 186 190 151 130 165 157 154 176 183 313 168 154 156 190 133 165 204 221 7 299 221 159 124 269 289
278 269 269 249 249 255 263 253 251 312 222 177 166 131 167 174 193 214 268 246 201 152 188 172 198 198 177 161 120 132 128 355 167 155 161 187 309 37 347 6 8 229 206 153 116 89 212
257 266 262 261 247 249 253 251 254 250 202 187 150 135 142 197 218 171 153 197 195 208 174 173 166 137 113 93 34 145 127 177 170 179 187 149 104 164 194 191 125 164 215 187 143 126 203
263 252 255 257 256 253 249 250 245 245 207 190 167 183 174 183 219 171 186 166 177 185 213 184 174 210 162 122 74 128 116 113 35 173 148 148 173 140 257 205 188 213 180 185 193 203 187
263 254 246 250 250 255 254 252 244 239 241 229 154 147 175 180 171 179 190 204 196 181 152 214 175 194 196 156 183 183 143 189 184 166 177 154 173 116 310 13 92 267 225 208 218 211 265
265 261 242 242 246 245 253 256 245 234 233 241 198 179 175 168 160 178 209 179 196 168 217 201 173 139 193 211 138 143 162 159 152 147 168 152 143 124 243 352 11 300 223 200 192 201 190
269 267 259 236 242 243 242 247 250 228 223 249 228 182 162 172 174 200 194 204 197 199 190 175 179 159 158 129 106 92 86 84 84 56 140 149 122 89 156 77 212 239 168 179 209 225 215
266 261 266 258 230 240 237 242 243 237 222 222 209 215 192 157 196 182 199 195 206 189 140 155 171 181 159 129 88 88 8 40 38 33 16 13 125 142 165 202 314 312 195 161 180 273 211
264 263 260 257 226 234 231 233 235 237 239 224 213 229 241 143 210 182 191 181 176 177 106 158 181 164 165 118 108 197 198 140 201 89 359 66 59 143 158 208 216 228 185 177 188 286 210
263 258 258 261 245 228 225 227 227 227 241 245 234 222 250 202 190 179 171 183 162 172 148 131 140 182 175 130 150 190 207 157 170 165 166 125 66 202 194 227 277 251 158 143 100 241 156
260 252 251 251 254 217 223 221 219 222 234 239 229 217 214 196 217 202 190 161 159 178 164 154 117 202 113 177 187 181 174 198 133 158 175 159 163 180 120 221 258 177 115 178 200 179 162
255 247 251 250 254 227 216 215 215 219 225 220 220 219 207 218 212 211 212 192 205 208 178 170 184 156 175 149 182 139 166 141 151 205 199 202 180 177 187 202 235 188 215 203 187 187 180
Wind_Speed_850mb
26 32 23 22 23 24 21 17 16 15 11 11 9 5 5 2 2 6 9 9 4 2 5 2 10 14 10 7 7 8 9 6 8 8 11 12 11 10 9 8 7 8 6 9 9 7 3
24 29 28 28 26 26 25 21 19 17 16 14 13 9 6 5 3 4 5 5 6 8 2 4 10 9 6 4 7 8 11 12 8 7 10 8 8 18 17 7 7 7 10 12 6 4 5
30 30 29 30 31 29 30 28 23 21 19 17 16 12 9 8 5 3 2 1 3 5 9 6 8 8 5 9 10 7 12 15 14 12 14 19 17 3 12 10 13 20 6 6 8 5 4
35 34 33 31 30 33 33 31 29 25 22 20 19 16 11 9 7 6 5 3 5 6 8 8 7 7 5 14 11 8 8 13 18 19 15 15 17 20 7 22 8 4 6 5 5 4 6
40 38 37 35 32 31 34 34 32 30 26 24 21 18 13 12 9 7 7 7 7 8 9 8 8 6 7 12 8 8 8 11 13 12 12 12 10 11 8 7 7 9 3 5 7 6 5
51 43 41 41 35 34 35 34 35 33 29 27 25 21 16 13 10 8 5 10 9 8 8 10 10 4 12 9 10 8 6 7 6 5 3 4 7 7 8 7 6 7 2 5 8 2 7
58 51 48 45 42 39 37 36 36 36 34 31 29 24 18 16 12 9 11 15 8 4 11 5 5 3 12 13 11 9 8 9 6 3 3 7 10 4 6 2 4 5 2 6 6 1 8
50 50 54 56 47 45 41 38 36 36 38 35 32 26 22 18 15 12 20 10 9 4 9 5 4 7 15 10 3 8 10 8 4 4 6 10 4 5 2 1 4 5 2 6 11 4 5
52 50 52 66 58 50 46 41 39 37 38 39 36 30 25 19 17 17 21 20 11 12 4 6 7 6 7 6 3 5 8 12 9 8 8 7 2 5 1 6 5 4 3 1 7 15 7
57 61 68 68 65 58 53 48 43 39 38 42 39 33 27 21 15 20 22 24 18 14 8 7 8 8 10 9 4 8 11 5 8 9 7 8 4 1 2 4 3 3 5 1 6 10 5
62 54 58 59 60 68 63 55 49 44 39 41 41 36 31 28 12 22 15 23 21 9 3 6 9 10 11 8 15 7 8 6 9 9 8 4 0 3 4 2 5 4 0 1 1 2 5
33 59 60 59 62 60 71 67 56 50 44 41 43 38 36 32 26 17 17 27 22 11 12 5 10 11 8 5 6 9 5 10 13 9 11 4 2 4 2 1 2 4 2 5 6 3 6
30 17 53 62 63 64 65 72 68 60 52 47 45 41 40 35 27 24 30 30 9 9 7 10 11 12 7 8 6 7 7 8 9 9 2 9 3 3 4 2 1 3 6 7 11 8 8
37 44 28 35 45 61 70 64 76 68 61 53 47 44 44 39 28 34 40 8 8 8 13 5 8 9 13 12 3 9 9 5 6 9 7 9 10 2 7 2 3 3 6 8 9 3 10
49 45 49 45 35 28 65 76 66 82 71 61 53 49 48 44 37 41 32 5 18 16 15 19 8 9 7 6 9 9 14 11 15 15 14 9 6 3 5 4 2 2 2 3 11 2 5
47 48 49 50 45 37 35 58 71 66 80 74 66 54 55 47 42 46 5 16 10 9 13 6 15 10 15 15 13 13 16 6 13 10 5 10 5 3 2 2 2 0 4 5 6 2 8
46 49 51 50 49 48 44 33 64 66 67 83 71 33 30 45 45 28 12 14 12 14 15 13 12 11 10 16 15 13 18 1 8 10 9 9 6 6 4 8 10 2 2 4 4 6 7
51 45 47 48 49 40 44 46 33 57 70 93 57 8 42 62 21 10 8 14 16 13 16 6 8 7 15 13 12 12 18 4 24 27 16 12 10 6 11 3 1 3 3 8 7 8 2
50 52 46 52 44 49 50 49 46 16 86 94 48 16 58 77 18 9 6 8 14 10 11 14 14 6 6 15 10 8 9 3 20 13 15 16 1 4 11 6 6 7 8 7 8 5 10
57 52 54 48 61 51 47 54 46 42 99 90 36 8 13 36 13 15 12 10 13 19 10 12 10 10 8 6 8 12 7 5 10 7 4 13 7 12 12 8 9 5 8 10 9 7 7
54 57 57 55 51 60 57 48 61 47 58 76 23 13 23 16 20 10 14 22 18 14 10 20 3 9 15 8 6 8 6 5 5 7 4 5 10 5 6 3 6 10 10 15 17 13 13
63 55 57 60 58 52 58 51 51 67 65 64 25 17 18 9 41 25 17 19 37 13 18 12 11 21 11 15 17 20 18 10 13 9 10 4 6 6 6 5 3 10 15 19 24 5 22
58 59 59 57 60 58 52 52 49 41 62 30 21 32 37 24 22 32 35 20 27 22 25 16 22 14 12 9 8 10 10 33 30 21 16 14 12 6 7 3 5 15 18 31 10 12 17
62 64 61 55 62 63 55 47 46 64 54 32 19 30 17 9 25 35 39 47 30 40 19 14 32 17 20 43 54 46 47 43 35 19 16 15 11 4 5 2 6 15 8 11 25 15 32
57 64 69 58 63 64 64 52 45 57 52 40 24 23 21 6 26 24 30 41 49 28 7 16 18 20 61 31 8 10 5 5 7 9 8 3 10 6 6 7 11 22 6 13 15 17 33
60 63 63 75 54 63 62 50 44 45 55 48 39 47 13 10 21 33 32 30 22 20 5 4 19 57 56 6 8 17 15 11 13 4 9 5 4 6 6 7 14 16 7 12 5 13 6
60 67 63 62 59 59 64 56 47 44 51 55 45 53 27 8 8 49 14 30 28 24 9 13 20 22 15 6 7 12 14 8 15 23 12 8 3 16 15 9 12 15 18 20 8 11 8
66 60 56 57 72 51 63 63 48 40 37 45 58 36 49 13 10 39 30 40 35 51 13 24 13 7 5 8 17 10 8 13 8 11 16 17 20 9 5 9 19 31 14 18 13 11 13
60 57 58 57 57 48 59 61 52 42 30 34 43 35 51 25 13 34 51 37 60 74 53 53 16 22 24 7 6 7 6 6 12 9 4 10 15 16 24 17 10 56 27 54 20 16 16
Wind_Direction_850mb
250 254 249 259 245 238 240 238 241 246 237 243 248 245 266 286 327 312 309 302 272 170 66 148 109 137 149 114 97 53 50 86 118 132 160 137 135 117 120 102 75 86 149 118 158 177 154
255 253 261 262 254 238 239 238 237 239 246 241 244 236 251 265 290 314 323 277 211 201 48 91 148 160 161 134 99 68 74 77 124 144 170 166 131 120 104 71 75 118 133 143 201 261 250
258 254 259 262 259 243 235 234 233 231 235 244 247 247 237 255 266 285 19 102 219 232 220 140 144 171 184 148 133 101 81 94 106 100 122 119 127 183 122 102 112 131 86 345 240 240 263
256 259 257 259 262 251 243 232 232 232 231 237 240 246 242 246 256 242 204 151 181 188 205 193 193 182 154 148 140 134 114 95 96 106 114 110 112 98 59 120 81 89 60 26 256 265 216
256 258 259 257 258 253 246 240 232 233 231 232 238 240 242 249 250 245 249 223 184 177 187 178 187 210 140 154 155 151 146 114 109 110 108 119 107 91 90 76 40 9 230 215 290 253 281
248 252 258 259 254 255 249 241 239 235 234 237 235 235 235 235 245 252 226 195 169 183 149 182 188 218 168 178 156 157 159 134 115 157 96 105 77 72 38 68 223 199 264 285 255 282 280
244 243 250 254 254 252 252 247 242 239 235 235 236 235 229 230 226 223 198 153 171 175 200 219 174 173 150 153 143 148 156 120 88 32 92 33 70 130 184 201 149 142 220 264 262 52 335
249 251 257 251 248 247 247 248 244 241 237 234 237 234 234 225 224 212 206 184 223 184 122 131 140 157 159 172 149 117 137 99 67 76 342 25 108 211 236 328 114 78 255 273 281 253 352
260 254 264 248 244 246 243 245 244 243 236 231 232 230 229 225 220 213 219 212 211 174 108 185 172 159 166 200 151 118 140 111 91 58 12 120 84 317 353 41 85 44 220 233 254 322 254
255 264 268 251 242 240 243 239 242 242 241 228 230 228 224 222 224 213 213 210 200 182 69 203 198 190 176 174 42 101 112 124 66 143 98 85 290 60 27 55 18 283 159 297 313 11 280
247 251 254 260 255 242 239 238 236 238 238 232 228 224 222 211 199 196 201 194 186 183 51 158 157 169 168 182 140 54 115 86 119 117 114 200 2 57 95 63 350 283 321 246 1 320 343
231 239 258 260 253 256 241 234 229 230 232 231 227 223 219 214 212 196 193 165 153 49 248 199 142 170 146 168 119 127 125 98 113 90 39 103 35 35 105 272 105 321 312 41 56 43 26
285 266 238 249 254 251 250 238 228 224 224 226 223 222 219 213 210 194 167 150 55 156 337 213 190 162 180 157 125 151 160 130 142 86 292 350 340 5 32 22 32 79 46 338 353 10 215
273 277 276 248 241 250 254 240 232 225 221 219 220 217 216 211 201 187 166 66 126 237 207 154 133 119 178 157 149 157 134 157 212 107 99 139 317 17 2 27 173 72 130 150 232 288 276
276 272 274 279 272 238 242 243 243 229 214 213 210 211 216 206 197 187 171 134 202 201 163 150 85 114 207 215 143 160 189 193 189 174 155 127 284 322 47 351 19 244 40 157 102 35 25
267 270 265 271 268 266 252 237 236 243 220 206 200 202 214 201 193 185 143 227 212 188 132 164 161 164 172 186 160 180 180 189 174 175 154 192 72 280 324 357 353 308 141 50 8 350 302
277 266 264 266 269 262 257 257 233 227 221 201 192 185 206 197 185 182 203 226 216 213 160 153 187 149 183 174 174 179 188 326 164 138 114 137 106 282 30 196 180 48 43 75 120 133 185
274 279 261 262 266 264 257 256 259 222 218 195 172 167 171 175 171 202 173 192 183 177 186 190 151 130 165 157 154 176 183 313 168 154 156 190 133 165 204 221 7 299 221 159 124 269 289
278 269 269 249 249 255 263 253 251 312 222 177 166 131 167 174 193 214 268 246 201 152 188 172 198 198 177 161 120 132 128 355 167 155 161 187 309 37 347 6 8 229 206 153 116 89 212
257 266 262 261 247 249 253 251 254 250 202 187 150 135 142 197 218 171 153 197 195 208 174 173 166 137 113 93 34 145 127 177 170 179 187 149 104 164 194 191 125 164 215 187 143 126 203
263 252 255 257 256 253 249 250 245 245 207 190 167 183 174 183 219 171 186 166 177 185 213 184 174 210 162 122 74 128 116 113 35 173 148 148 173 140 257 205 188 213 180 185 193 203 187
263 254 246 250 250 255 254 252 244 239 241 229 154 147 175 180 171 179 190 204 196 181 152 214 175 194 196 156 183 183 143 189 184 166 177 154 173 116 310 13 92 267 225 208 218 211 265
265 261 242 242 246 245 253 256 245 234 233 241 198 179 175 168 160 178 209 179 196 168 217 201 173 139 193 211 138 143 162 159 152 147 168 152 143 124 243 352 11 300 223 200 192 201 190
269 267 259 236 242 243 242 247 250 228 223 249 228 182 162 172 174 200 194 204 197 199 190 175 179 159 158 129 106 92 86 84 84 56 140 149 122 89 156 77 212 239 168 179 209 225 215
266 261 266 258 230 240 237 242 243 237 222 222 209 215 192 157 196 182 199 195 206 189 140 155 171 181 159 129 88 88 8 40 38 33 16 13 125 142 165 202 314 312 195 161 180 273 211
264 263 260 257 226 234 231 233 235 237 239 224 213 229 241 143 210 182 191 181 176 177 106 158 181 164 165 118 108 197 198 140 201 89 359 66 59 143 158 208 216 228 185 177 188 286 210
263 258 258 261 245 228 225 227 227 227 241 245 234 222 250 202 190 179 171 183 162 172 148 131 140 182 175 130 150 190 207 157 170 165 166 125 66 202 194 227 277 251 158 143 100 241 156
260 252 251 251 254 217 223 221 219 222 234 239 229 217 214 196 217 202 190 161 159 178 164 154 117 202 113 177 187 181 174 198 133 158 175 159 163 180 120 221 258 177 115 178 200 179 162
255 247 251 250 254 227 216 215 215 219 225 220 220 219 207 218 212 211 212 192 205 208 178 170 184 156 175 149 182 139 166 141 151 205 199 202 180 177 187 202 235 188 215 203 187 187 180